Location: Unspecified
(54.1780°N, 0.0000°E)
Time: 01:02:32
(UTC+00:00)

Explorer 7 - Pass Details

Date: 25 June 2019
Orbit: 485 x 680 km, 50.3° (Epoch: 14 October)

Event Time Altitude Azimuth Distance (km) Brightness Sun altitude
Rises 10:33:42 0° 262° (W) 2,819 10.3 55.0°
Reaches altitude 10° 10:35:57 10° 257° (WSW) 1,951 9.6 55.2°
Maximum altitude 10:40:19 54° 181° (S) 772 9.2 55.6°
Drops below altitude 10° 10:44:57 10° 105° (ESE) 2,061 10.3 55.9°
Sets 10:47:23 0° 101° (E) 2,995 10.9 56.1°
